�������l�o���
Date,Time,MP-1(��Sv/h),MP-2(��Sv/h),MP-3(��Sv/h),MP-4(��Sv/h),MP-5(��Sv/h),MP-6(��Sv/h),MP-7(��Sv/h),MP-8(��Sv/h),����,����(m/s),���J
2023/07/11,00:00,0.510,0.776,0.476,0.940,0.686,0.318,0.558,0.526,�쐼,2.3,��
2023/07/11,00:10,0.510,0.774,0.478,0.940,0.684,0.319,0.559,0.526,�쐼,2.9,��
2023/07/11,00:20,0.511,0.774,0.477,0.940,0.686,0.318,0.558,0.527,���쐼,2.8,��
2023/07/11,00:30,0.511,0.772,0.476,0.943,0.685,0.319,0.558,0.527,���쐼,2.3,��
2023/07/11,00:40,0.510,0.776,0.478,0.942,0.684,0.319,0.560,0.527,���쐼,2.2,��
2023/07/11,00:50,0.510,0.774,0.477,0.944,0.684,0.319,0.559,0.526,��,2.6,��
2023/07/11,01:00,0.510,0.774,0.476,0.943,0.686,0.318,0.559,0.527,���k��,2.5,��
2023/07/11,01:10,0.508,0.775,0.476,0.940,0.685,0.318,0.559,0.526,���k��,2.8,��
2023/07/11,01:20,0.509,0.775,0.479,0.944,0.685,0.319,0.559,0.526,���k��,2.6,�L
2023/07/11,01:30,0.511,0.775,0.478,0.943,0.686,0.320,0.559,0.528,���k��,2.0,��
2023/07/11,01:40,0.512,0.776,0.479,0.942,0.687,0.318,0.560,0.526,���k��,2.0,��
2023/07/11,01:50,0.510,0.777,0.477,0.942,0.687,0.318,0.558,0.526,�k��,4.7,�L
2023/07/11,02:00,0.513,0.775,0.478,0.943,0.687,0.322,0.561,0.526,�k��,10.8,�L
2023/07/11,02:10,0.511,0.769,0.480,0.943,0.684,0.325,0.557,0.524,�k��,10.2,�L
2023/07/11,02:20,0.508,0.767,0.480,0.934,0.677,0.326,0.556,0.523,-,CALM,�L
2023/07/11,02:30,0.504,0.758,0.479,0.922,0.672,0.323,0.553,0.510,-,CALM,�L
2023/07/11,02:40,0.506,0.762,0.482,0.922,0.670,0.328,0.553,0.473,�쐼,5.4,�L
2023/07/11,02:50,0.512,0.762,0.483,0.924,0.672,0.330,0.553,0.446,��쐼,2.5,�L
2023/07/11,03:00,0.515,0.768,0.486,0.926,0.672,0.331,0.553,0.434,��쐼,5.9,�L
2023/07/11,03:10,0.518,0.769,0.486,0.927,0.672,0.333,0.554,0.432,��쐼,3.0,�L
2023/07/11,03:20,0.520,0.770,0.489,0.926,0.671,0.332,0.554,0.433,��,1.7,�L
2023/07/11,03:30,0.520,0.774,0.488,0.929,0.675,0.332,0.553,0.435,��,2.3,�L
2023/07/11,03:40,0.522,0.774,0.488,0.928,0.677,0.331,0.555,0.442,��쓌,2.6,�L
2023/07/11,03:50,0.521,0.775,0.485,0.928,0.675,0.329,0.554,0.455,��,2.5,��
2023/07/11,04:00,0.519,0.771,0.483,0.928,0.673,0.327,0.553,0.479,��쓌,3.7,��
2023/07/11,04:10,0.514,0.770,0.482,0.927,0.672,0.326,0.552,0.505,��,4.3,��
2023/07/11,04:20,0.512,0.768,0.479,0.925,0.669,0.323,0.552,0.515,��,4.7,��
2023/07/11,04:30,0.511,0.768,0.476,0.923,0.670,0.321,0.552,0.519,��,5.6,��
2023/07/11,04:40,0.508,0.764,0.477,0.924,0.669,0.320,0.551,0.523,��,6.1,��
2023/07/11,04:50,0.507,0.764,0.476,0.923,0.667,0.318,0.550,0.521,��쐼,4.5,��
2023/07/11,05:00,0.506,0.765,0.474,0.924,0.666,0.317,0.550,0.521,��쐼,3.7,��
2023/07/11,05:10,0.505,0.766,0.473,0.923,0.665,0.315,0.550,0.521,��,4.3,��
2023/07/11,05:20,0.505,0.764,0.472,0.923,0.667,0.316,0.551,0.521,��,4.1,��
2023/07/11,05:30,0.502,0.763,0.473,0.924,0.666,0.315,0.550,0.521,��,3.2,��
2023/07/11,05:40,0.502,0.763,0.472,0.922,0.666,0.315,0.551,0.521,��,2.9,��
2023/07/11,05:50,0.503,0.761,0.472,0.922,0.673,0.315,0.552,0.522,��,3.2,��
2023/07/11,06:00,0.503,0.764,0.471,0.922,0.664,0.315,0.552,0.522,��쓌,1.9,��
2023/07/11,06:10,0.503,0.765,0.469,0.923,0.665,0.314,0.552,0.522,��쓌,2.2,��
2023/07/11,06:20,0.503,0.762,0.472,0.923,0.668,0.315,0.553,0.523,��쓌,1.1,��
2023/07/11,06:30,0.504,0.764,0.469,0.922,0.667,0.313,0.551,0.522,��쓌,2.3,��
2023/07/11,06:40,0.504,0.764,0.471,0.921,0.668,0.314,0.553,0.522,��쓌,2.5,��
2023/07/11,06:50,0.505,0.763,0.469,0.921,0.667,0.314,0.554,0.523,��쓌,3.4,��
2023/07/11,07:00,0.505,0.765,0.469,0.922,0.667,0.314,0.555,0.523,��,2.0,��
2023/07/11,07:10,0.506,0.766,0.469,0.923,0.668,0.315,0.554,0.522,��쓌,2.3,��
2023/07/11,07:20,0.505,0.765,0.470,0.921,0.669,0.315,0.553,0.524,��쓌,1.7,��
2023/07/11,07:30,0.505,0.766,0.469,0.924,0.669,0.315,0.554,0.522,��쓌,3.0,��
2023/07/11,07:40,0.505,0.766,0.472,0.922,0.669,0.315,0.553,0.523,�쓌,2.6,��
2023/07/11,07:50,0.505,0.768,0.472,0.921,0.669,0.314,0.555,0.520,���쓌,2.9,��
2023/07/11,08:00,0.506,0.767,0.471,0.923,0.670,0.314,0.553,0.520,���쓌,2.3,��
2023/07/11,08:10,0.505,0.769,0.473,0.923,0.670,0.316,0.554,0.521,���쓌,2.3,��
2023/07/11,08:20,0.506,0.769,0.472,0.922,0.672,0.315,0.554,0.520,�쓌,2.3,��
2023/07/11,08:30,0.506,0.767,0.473,0.923,0.672,0.316,0.553,0.523,�쓌,2.0,��
2023/07/11,08:40,0.507,0.770,0.474,0.924,0.673,0.316,0.555,0.521,���쓌,0.9,��
2023/07/11,08:50,0.507,0.770,0.474,0.924,0.670,0.315,0.554,0.522,�쓌,0.6,��
2023/07/11,09:00,0.506,0.769,0.474,0.924,0.673,0.315,0.554,0.522,�쓌,0.9,��
2023/07/11,09:10,0.508,0.767,0.475,0.925,0.671,0.316,0.554,0.522,�쓌,1.2,��
2023/07/11,09:20,0.508,0.771,0.474,0.927,0.674,0.317,0.558,0.521,�쓌,2.0,��
2023/07/11,09:30,0.510,0.772,0.476,0.924,0.675,0.316,0.557,0.522,��쓌,2.2,��
2023/07/11,09:40,0.509,0.772,-,0.926,0.672,0.316,0.558,0.525,��쓌,2.6,��
2023/07/11,09:50,0.511,0.773,-,0.929,0.675,0.318,0.558,0.521,�쓌,2.3,��
2023/07/11,10:00,0.509,0.772,-,0.926,0.676,0.317,0.558,0.522,��쓌,3.5,��
2023/07/11,10:10,0.512,0.775,-,0.929,0.676,0.317,0.557,0.523,�쓌,2.9,��
2023/07/11,10:20,0.510,0.775,-,0.928,0.677,0.317,0.554,0.525,�쓌,3.6,��
2023/07/11,10:30,0.512,0.775,-,0.928,0.678,0.318,0.558,0.524,�쓌,4.8,��
2023/07/11,10:40,0.512,0.776,-,0.929,0.679,0.316,0.557,0.523,�쓌,3.9,��
2023/07/11,10:50,0.511,0.777,-,0.929,0.678,0.318,0.556,0.524,��쓌,4.3,��
2023/07/11,11:00,0.512,0.777,-,0.929,0.680,0.318,0.557,0.524,�쓌,5.8,��
2023/07/11,11:10,0.513,0.778,-,0.927,0.679,0.317,0.557,0.524,��쓌,5.6,��
2023/07/11,11:20,0.514,0.778,-,0.929,0.680,0.319,0.557,0.523,��쓌,6.9,��
2023/07/11,11:30,0.512,0.778,0.478,0.927,0.680,0.318,0.558,0.524,��쓌,5.9,��
2023/07/11,11:40,0.512,0.778,0.479,0.927,0.681,0.318,0.557,0.524,��쓌,5.5,��
2023/07/11,11:50,0.512,0.780,0.481,0.929,0.681,0.318,0.557,0.525,��쓌,5.6,��
2023/07/11,12:00,0.513,0.780,0.478,0.926,0.683,0.319,0.557,0.524,��쓌,5.1,��
2023/07/11,12:10,0.513,0.781,0.481,0.929,0.682,0.320,0.557,0.525,��쓌,4.1,��
2023/07/11,12:20,0.514,0.780,0.482,0.929,0.682,0.318,0.556,0.526,��쓌,2.5,��
2023/07/11,12:30,0.514,0.779,0.482,0.929,0.682,0.319,0.557,0.523,��,1.4,��
2023/07/11,12:40,0.514,0.782,0.481,0.930,0.682,0.319,0.557,0.524,��쓌,2.9,��
2023/07/11,12:50,0.514,0.781,0.482,0.932,0.685,0.319,0.558,0.525,�쐼,4.1,��
2023/07/11,13:00,0.513,0.781,0.483,0.931,0.685,0.320,0.559,0.524,���쐼,5.0,��
2023/07/11,13:10,0.515,0.780,0.483,0.932,0.683,0.319,0.559,0.525,���쐼,5.3,��
2023/07/11,13:20,0.515,0.781,0.484,0.932,0.685,0.322,0.558,0.525,�쐼,2.3,��
2023/07/11,13:30,0.515,0.781,0.482,0.933,0.687,0.321,0.558,0.524,��,4.8,��
2023/07/11,13:40,0.516,0.783,0.483,0.932,0.685,0.321,0.558,0.525,��쓌,7.0,��
2023/07/11,13:50,0.517,0.783,0.483,0.934,0.688,0.322,0.559,0.525,��,6.0,��
2023/07/11,14:00,0.516,0.786,0.485,0.931,0.688,0.321,0.557,0.526,��,6.3,��
2023/07/11,14:10,0.516,0.786,0.485,0.935,0.688,0.323,0.560,0.525,��,4.1,��
2023/07/11,14:20,0.517,0.783,0.483,0.934,0.687,0.320,0.556,0.527,��,3.4,��
2023/07/11,14:30,0.516,0.785,0.485,0.936,0.689,0.320,0.558,0.525,��,5.8,��
2023/07/11,14:40,0.517,0.785,0.485,0.933,0.689,0.321,0.559,0.526,��,5.4,��
2023/07/11,14:50,0.518,0.787,0.483,0.934,0.688,0.320,0.559,0.527,��,4.6,��
2023/07/11,15:00,0.516,0.785,0.483,0.934,0.689,0.321,0.559,0.528,��,5.7,��
2023/07/11,15:10,0.517,0.785,0.485,0.936,0.689,0.321,0.561,0.526,��,6.1,��
2023/07/11,15:20,0.516,0.783,0.485,0.934,0.690,0.322,0.560,0.528,��쓌,5.7,��
2023/07/11,15:30,0.516,0.787,0.484,0.936,0.689,0.319,0.559,0.528,��,6.1,��
2023/07/11,15:40,0.516,0.787,0.484,0.934,0.688,0.320,0.560,0.525,��,6.9,��
2023/07/11,15:50,0.517,0.788,0.484,0.936,0.688,0.320,0.560,0.526,��,5.7,��
2023/07/11,16:00,0.518,0.786,0.484,0.937,0.690,0.320,0.560,0.527,��,5.5,��
2023/07/11,16:10,0.517,0.787,0.485,0.935,0.690,0.320,0.558,0.527,��,6.7,��
2023/07/11,16:20,0.517,0.787,0.484,0.937,0.689,0.320,0.559,0.525,��,5.6,��
2023/07/11,16:30,0.515,0.788,0.484,0.935,0.690,0.320,0.559,0.527,��,5.5,��
2023/07/11,16:40,0.518,0.787,0.484,0.937,0.689,0.321,0.559,0.526,��쐼,5.1,��
2023/07/11,16:50,0.516,0.787,0.484,0.938,0.689,0.322,0.561,0.528,�쐼,5.2,��
2023/07/11,17:00,0.518,0.785,0.486,0.940,0.691,0.321,0.560,0.528,��,7.0,��
2023/07/11,17:10,0.519,0.787,0.487,0.940,0.690,0.322,0.559,0.526,���쐼,6.0,��
2023/07/11,17:20,0.517,0.789,0.488,0.938,0.691,0.321,0.558,0.525,���쐼,5.6,��
2023/07/11,17:30,0.520,0.788,0.487,0.941,0.689,0.323,0.558,0.524,���쐼,5.7,��
2023/07/11,17:40,0.519,0.789,0.486,0.940,0.690,0.322,0.557,0.527,���쐼,5.3,��
2023/07/11,17:50,0.518,0.788,0.485,0.938,0.690,0.321,0.556,0.526,��,5.7,��
2023/07/11,18:00,0.519,0.788,0.484,0.941,0.691,0.322,0.557,0.526,���쐼,5.4,��
2023/07/11,18:10,0.519,0.788,0.486,0.942,0.692,0.322,0.559,0.526,���쐼,3.7,��
2023/07/11,18:20,0.519,0.787,0.485,0.939,0.689,0.322,0.557,0.527,���쐼,1.7,��
2023/07/11,18:30,0.518,0.785,0.484,0.941,0.693,0.321,0.558,0.527,�k,0.8,��
2023/07/11,18:40,0.518,0.785,0.484,0.940,0.692,0.320,0.559,0.527,�쓌,0.9,��
2023/07/11,18:50,0.517,0.788,0.483,0.942,0.688,0.320,0.559,0.527,��,1.2,��
2023/07/11,19:00,0.518,0.787,0.484,0.942,0.689,0.321,0.559,0.526,��,1.5,��
2023/07/11,19:10,0.520,0.790,0.483,0.940,0.690,0.321,0.559,0.526,��쐼,1.7,��
2023/07/11,19:20,0.518,0.788,0.485,0.940,0.691,0.322,0.559,0.526,��쐼,2.3,��
2023/07/11,19:30,0.518,0.787,0.484,0.940,0.690,0.321,0.559,0.526,�쐼,2.0,��
2023/07/11,19:40,0.520,0.789,0.484,0.941,0.689,0.321,0.559,0.526,�쐼,2.6,��
2023/07/11,19:50,0.519,0.785,0.484,0.939,0.691,0.321,0.559,0.526,���쐼,2.6,��
2023/07/11,20:00,0.519,0.788,0.483,0.941,0.690,0.322,0.558,0.527,���쐼,2.6,��
2023/07/11,20:10,0.519,0.788,0.484,0.941,0.691,0.322,0.559,0.527,���쐼,2.0,��
2023/07/11,20:20,0.518,0.788,0.485,0.941,0.689,0.322,0.559,0.528,��쓌,1.7,��
2023/07/11,20:30,0.519,0.787,0.485,0.940,0.692,0.321,0.560,0.527,��쓌,2.2,��
2023/07/11,20:40,0.519,0.788,0.485,0.941,0.693,0.322,0.559,0.526,��쓌,3.8,��
2023/07/11,20:50,0.519,0.787,0.484,0.940,0.691,0.321,0.560,0.527,��쓌,3.4,��
2023/07/11,21:00,0.518,0.787,0.486,0.942,0.691,0.320,0.559,0.527,��,4.1,��
2023/07/11,21:10,0.519,0.789,0.484,0.943,0.692,0.322,0.561,0.527,��,4.0,��
2023/07/11,21:20,0.518,0.789,0.486,0.943,0.693,0.322,0.559,0.525,��,3.7,��
2023/07/11,21:30,0.518,0.788,0.485,0.942,0.693,0.322,0.559,0.527,��,4.2,��
2023/07/11,21:40,0.518,0.788,0.485,0.941,0.691,0.322,0.559,0.527,��,3.0,��
2023/07/11,21:50,0.519,0.790,0.485,0.942,0.691,0.322,0.560,0.527,��쐼,2.2,��
2023/07/11,22:00,0.519,0.788,0.485,0.943,0.690,0.321,0.560,0.526,�쐼,1.1,��
2023/07/11,22:10,0.519,0.788,0.486,0.944,0.693,0.322,0.561,0.527,�쐼,1.7,��
2023/07/11,22:20,0.518,0.789,0.484,0.944,0.691,0.322,0.560,0.528,�쐼,2.0,��
2023/07/11,22:30,0.519,0.789,0.485,0.945,0.691,0.321,0.560,0.527,��,2.0,��
2023/07/11,22:40,0.519,0.790,0.484,0.941,0.691,0.322,0.559,0.528,��,2.5,��
2023/07/11,22:50,0.518,0.790,0.486,0.941,0.693,0.322,0.560,0.528,���k��,4.6,��
2023/07/11,23:00,0.517,0.789,0.486,0.942,0.691,0.323,0.560,0.526,��,4.7,��
2023/07/11,23:10,0.519,0.790,0.487,0.942,0.693,0.322,0.561,0.528,���쐼,4.4,��
2023/07/11,23:20,0.518,0.790,0.487,0.943,0.692,0.321,0.560,0.527,���쐼,4.5,��
2023/07/11,23:30,0.518,0.788,0.484,0.943,0.692,0.322,0.561,0.527,���쐼,4.1,��
2023/07/11,23:40,0.518,0.788,0.485,0.942,0.692,0.322,0.560,0.528,���쐼,4.4,��
2023/07/11,23:50,0.516,0.790,0.485,0.944,0.693,0.321,0.561,0.528,���쐼,4.0,��
